This is the latest recevied weather packets stored in our database for station/object WA1TYB-13. If no packets are shown the sender has not sent any weather packets the latest 10 day(s).
| Time | Temp. | Humidity | Pressure | Rain* | Wind** | Luminosity | Snow |
|---|---|---|---|---|---|---|---|
| 1777850785 | 23.33° C | 16% | 1010.6 hPa | 0 mm | - | 403 W/m² | - |
| 1777850483 | 23.33° C | 16% | 1010.8 hPa | 0 mm | - | 412 W/m² | - |
| 1777850180 | 23.33° C | 16% | 1011 hPa | 0 mm | - | 408 W/m² | - |
| 1777849877 | 23.33° C | 16% | 1011 hPa | 0 mm | - | 441 W/m² | - |
| 1777849574 | 23.89° C | 16% | 1010.8 hPa | 0 mm | - | 419 W/m² | - |
| 1777849271 | 23.89° C | 17% | 1011 hPa | 0 mm | - | 465 W/m² | - |
| 1777848968 | 23.33° C | 16% | 1011.4 hPa | 0 mm | - | 485 W/m² | - |
| 1777848668 | 23.33° C | 16% | 1011.1 hPa | 0 mm | - | 468 W/m² | - |
| 1777848366 | 23.33° C | 15% | 1011.3 hPa | 0 mm | - | 475 W/m² | - |
| 1777848064 | 23.33° C | 16% | 1011.2 hPa | 0 mm | - | 503 W/m² | - |
| 1777847761 | 23.33° C | 16% | 1011.3 hPa | 0 mm | - | 551 W/m² | - |
| 1777847456 | 23.89° C | 17% | 1011.5 hPa | 0 mm | - | 573 W/m² | - |
| 1777847155 | 23.33° C | 16% | 1011.5 hPa | 0 mm | - | 598 W/m² | - |
| 1777846852 | 23.33° C | 18% | 1011.7 hPa | 0 mm | - | 589 W/m² | - |
| 1777846550 | 23.33° C | 21% | 1011.5 hPa | 0 mm | - | 216 W/m² | - |
| 1777846248 | 23.33° C | 18% | 1011.6 hPa | 0 mm | - | 576 W/m² | - |
| 1777845943 | 23.33° C | 22% | 1012 hPa | 0 mm | - | 544 W/m² | - |
| 1777845641 | 23.33° C | 20% | 1012 hPa | 0 mm | - | 539 W/m² | - |
| 1777845338 | 23.33° C | 22% | 1012 hPa | 0 mm | - | 562 W/m² | - |
| 1777845035 | 23.33° C | 18% | 1012 hPa | 0 mm | - | 573 W/m² | - |
| 1777844733 | 23.33° C | 21% | 1011.8 hPa | 0 mm | - | 585 W/m² | - |
| 1777844429 | 22.78° C | 20% | 1012.2 hPa | 0 mm | - | 568 W/m² | - |
| 1777844128 | 22.78° C | 21% | 1012.3 hPa | 0 mm | - | 584 W/m² | - |
| 1777843824 | 23.33° C | 22% | 1012.2 hPa | 0 mm | - | 580 W/m² | - |
| 1777843521 | 22.78° C | 22% | 1012.3 hPa | 0 mm | - | 563 W/m² | - |
* Rain latest hour (hover to see other rain measurements)
** Current wind speed in m/s (hover to see current wind gust speed)